Location: Unspecified
(58.7730°N, 5.8460°E)
Time: 18:26:39
(UTC+02:00)

Resurs 1-4 Rocket - Visible Passes

Search period start: 26 May 2016 00:00
Search period end: 05 June 2016 00:00
Orbit: 800 x 814 km, 98.4° (Epoch: 25 May)

Date Brightness Start Highest point End Pass type
(mag) Time Alt. Az. Time Alt. Az. Time Alt. Az.
26 May 4.6 02:51:24 10° NE 02:53:52 13° E 02:56:20 10° ESE visible
29 May 4.4 03:16:44 10° NE 03:20:35 20° E 03:24:25 10° SE visible
30 May 4.6 02:53:00 10° NE 02:55:38 14° E 02:58:15 10° ESE visible
02 Jun 4.3 03:18:25 10° NE 03:22:20 20° E 03:26:15 10° SE visible
03 Jun 4.6 02:54:37 10° NE 02:57:23 14° E 03:00:09 10° ESE visible
